Weather History for KPAE - July, 2013

Change the Weather History Date:

Friday, July 19, 2013

  Actual Average Record
Temperature  
Mean Temperature 64 °F -  
Max Temperature 73 °F 76 °F 85 °F (1956)
Min Temperature 55 °F 54 °F 45 °F (1969)
Degree Days  
Heating Degree Days 1    
Growing Degree Days 14 (Base 50)    
Moisture  
Dew Point 54 °F    
Average Humidity 83    
Maximum Humidity 94    
Minimum Humidity 53    
Precipitation  
Precipitation 0.00 in - - ()
Sea Level Pressure  
Sea Level Pressure 30.14 in    
Wind  
Wind Speed 4 mph (North)    
Max Wind Speed 8 mph    
Max Gust Speed 17 mph    
Visibility 7 miles    
Events Fog    
Averages and records for this station are not official NWS values.
T = Trace of Precipitation, MM = Missing Value Source: NWS Daily Summary

Daily Weather History Graph

Daily Weather History Graph

Search for Another Location

Airport or City:

Trip Planner

Search our weather history database for the weather conditions in past years. The results will help you decide how hot, cold, wet, or windy it might be!

Date:

Astronomy

Jul. 19, 2013 Rise Set
Actual Time 5:30 AM PDT 8:59 PM PDT
Civil Twilight 4:51 AM PDT 9:38 PM PDT
Nautical Twilight 4:00 AM PDT 10:29 PM PDT
Astronomical Twilight 2:51 AM PDT 11:36 PM PDT
Moon 6:07 PM PDT (7/19) 2:17 AM PDT (7/19)
Length of Visible Light 16h 46m
Length of Day
15h 29m
Waxing Gibbous, 87% of the Moon is Illuminated
Jul 19
Waxing Gibbous
Jul 22
Full
Jul 29
Last Quarter
Aug 6
New
Aug 14
First Quarter

Hourly Weather History & Observations

Time (PDT) Temp. Dew Point Humidity Pressure Visibility Wind Dir Wind Speed Gust Speed Precip Events Conditions
12:53 AM 55.9 °F 53.1 °F 90% 30.16 in 10.0 mi NNE 4.6 mph - N/A   Clear
1:53 AM 55.9 °F 53.1 °F 90% 30.15 in 10.0 mi NE 4.6 mph - N/A   Clear
2:53 AM 55.0 °F 53.1 °F 93% 30.16 in 10.0 mi NNE 5.8 mph - N/A   Clear
3:25 AM 55.4 °F 53.6 °F 94% 30.16 in 10.0 mi North 4.6 mph - N/A   Scattered Clouds
3:34 AM 55.4 °F 53.6 °F 94% 30.16 in 10.0 mi NNE 6.9 mph - N/A   Mostly Cloudy
3:53 AM 55.9 °F 53.1 °F 90% 30.16 in 9.0 mi NNE 6.9 mph - N/A   Overcast
4:53 AM 55.0 °F 53.1 °F 93% 30.17 in 7.0 mi North 3.5 mph - N/A   Overcast
5:51 AM 55.4 °F 53.6 °F 94% 30.17 in 2.5 mi North 4.6 mph - N/A   Overcast
5:53 AM 55.0 °F 53.1 °F 93% 30.17 in 2.5 mi North 3.5 mph - N/A   Overcast
6:01 AM 55.4 °F 53.6 °F 94% 30.17 in 4.0 mi Calm Calm - N/A   Overcast
6:18 AM 55.4 °F 53.6 °F 94% 30.17 in 1.2 mi Calm Calm - N/A   Overcast
6:36 AM 55.4 °F 53.6 °F 94% 30.18 in 2.0 mi Calm Calm - N/A   Overcast
6:44 AM 55.4 °F 53.6 °F 94% 30.18 in 1.0 mi Variable 3.5 mph - N/A   Overcast
6:53 AM 55.0 °F 53.1 °F 93% 30.18 in 0.8 mi North 3.5 mph - N/A   Overcast
7:00 AM 55.4 °F 53.6 °F 94% 30.18 in 1.0 mi North 4.6 mph - N/A   Overcast
7:53 AM 55.9 °F 53.1 °F 90% 30.19 in 1.0 mi North 4.6 mph - N/A   Overcast
8:53 AM 55.9 °F 53.1 °F 90% 30.19 in 0.5 mi NNE 5.8 mph - N/A Fog Fog
9:53 AM 55.9 °F 53.1 °F 90% 30.19 in 1.0 mi Variable 4.6 mph - N/A   Overcast
10:53 AM 59.0 °F 53.1 °F 81% 30.18 in 5.0 mi Variable 3.5 mph - N/A   Haze
11:32 AM 60.8 °F 53.6 °F 77% 30.18 in 10.0 mi Calm Calm - N/A   Mostly Cloudy
11:35 AM 60.8 °F 53.6 °F 77% 30.18 in 10.0 mi Variable 4.6 mph - N/A   Scattered Clouds
11:53 AM 63.0 °F 54.0 °F 72% 30.17 in 10.0 mi Variable 3.5 mph - N/A   Partly Cloudy
12:53 PM 70.0 °F 55.0 °F 59% 30.16 in 10.0 mi Variable 3.5 mph - N/A   Clear
1:53 PM 71.1 °F 55.0 °F 57% 30.14 in 10.0 mi Variable 4.6 mph - N/A   Clear
2:53 PM 73.0 °F 55.9 °F 55% 30.12 in 10.0 mi West 5.8 mph - N/A   Clear
3:53 PM 73.0 °F 55.0 °F 53% 30.11 in 10.0 mi Variable 5.8 mph - N/A   Clear
4:53 PM 68.0 °F 54.0 °F 61% 30.10 in 10.0 mi North 6.9 mph - N/A   Clear
5:53 PM 66.9 °F 54.0 °F 63% 30.09 in 10.0 mi North 8.1 mph - N/A   Clear
6:53 PM 64.9 °F 54.0 °F 68% 30.08 in 10.0 mi North 8.1 mph 17.3 mph N/A   Clear
7:53 PM 63.0 °F 54.0 °F 72% 30.08 in 10.0 mi Variable 5.8 mph - N/A   Clear
8:53 PM 59.0 °F 53.1 °F 81% 30.09 in 10.0 mi Calm Calm - N/A   Clear
9:53 PM 57.9 °F 53.1 °F 84% 30.09 in 10.0 mi NNE 6.9 mph - N/A   Clear
10:53 PM 55.9 °F 54.0 °F 93% 30.09 in 8.0 mi NNE 6.9 mph - N/A   Clear
11:20 PM 55.4 °F 53.6 °F 94% 30.09 in 8.0 mi NNE 3.5 mph - N/A   Scattered Clouds
11:30 PM 55.4 °F 53.6 °F 94% 30.09 in 8.0 mi Variable 4.6 mph - N/A   Mostly Cloudy
11:53 PM 55.9 °F 53.1 °F 90% 30.09 in 8.0 mi NNE 6.9 mph - N/A   Overcast